Regional Weather Roundup
Issued by NWS

Home | Current Version | Previous Version | Text Only | Print | Product List | Glossary On
Versions: 1 2 3 4 5 6 7 8 9 10 11 12 13 14 15 16 17 18 19 20 21 22 23 24 25 26 27 28 29 30 31 32 33 34 35 36 37 38 39 40 41 42 43 44 45 46 47 48 49 50
000
ASUS45 KBOI 170810
RWRID

IDAHO REGIONAL WEATHER ROUNDUP
NATIONAL WEATHER SERVICE BOISE ID
100 AM MST MON FEB 17 2020

NOTE: "FAIR" INDICATES FEW OR NO CLOUDS BELOW 12000 FEET
WITH NO SIGNIFICANT WEATHER AND/OR OBSTRUCTIONS TO VISIBILITY

IDZ012-014-170900-
SOUTHWEST IDAHO


CITY           SKY/WX    TMP DP  RH WIND       PRES   REMARKS
BOISE          CLEAR     29  20  69 CALM      30.19R
CALDWELL       CLEAR     31  22  69 W10       30.21R WCI  22
MOUNTAIN HOME  CLEAR     26  26  98 SW5       30.18R WCI  21
$$

IDZ016-017-170900-
SOUTHCENTRAL IDAHO


CITY           SKY/WX    TMP DP  RH WIND       PRES   REMARKS
BURLEY         CLEAR     30  21  69 W13G24    30.08R WCI  20
JEROME         CLEAR     28  25  88 W10       30.12S WCI  19
TWIN FALLS     CLEAR     28  20  71 W17       30.13R WCI  16
$$

IDZ019>023-170900-
SOUTHEAST IDAHO


CITY           SKY/WX    TMP DP  RH WIND       PRES   REMARKS
IDAHO FALLS    PTCLDY    19  14  81 S6        30.02R WCI  11
POCATELLO      CLEAR     27  22  81 SW13      30.06S WCI  16
REXBURG        CLOUDY    20  15  81 S3        30.01R
$$

IDZ006-010-011-018-031-032-170900-
CENTRAL IDAHO MOUNTAINS


CITY           SKY/WX    TMP DP  RH WIND       PRES   REMARKS
MCCALL         CLEAR     14  10  84 NE3       30.06S
HAILEY         CLEAR     21   9  58 NW3       30.05R
STANLEY          N/A      8   4  83 CALM      30.03R
SALMON         PTCLDY    20  11  68 S6        30.07R WCI  12
CHALLIS        PTCLDY    17   9  70 N3        30.04R
$$

IDZ002-004-006-007-026-170900-
NORTHERN IDAHO


CITY           SKY/WX    TMP DP  RH WIND       PRES   REMARKS
LEWISTON       MOCLDY    40  26  57 S9        30.14R WCI  34
LOWELL         NOT AVBL
COEUR D`ALENE  MOCLDY    32  26  78 S3        30.05R
MULLAN PASS    LGT SNOW  20  16  84 VRB5      29.90S VSB 3/4 WCI  13
$$



USA.gov is the U.S. government's official web portal to all federal, state and local government web resources and services.